Location: Caledonia
(42.3690°N, 88.8930°W)
Time: 11:44:55
(UTC-05:00)

HST - Visible Passes

Search period start: 21 October 2014 00:00
Search period end: 31 October 2014 00:00
Orbit: 546 x 550 km, 28.5° (Epoch: 20 October)

Date Brightness Start Highest point End Pass type
(mag) Time Alt. Az. Time Alt. Az. Time Alt. Az.
27 Oct 3.3 19:35:41 10° S 19:36:27 10° S 19:37:02 10° SSE visible
28 Oct 3.2 19:27:40 10° SSW 19:28:59 11° S 19:30:09 10° SSE visible
29 Oct 3.2 19:19:57 10° SSW 19:21:31 12° S 19:23:05 10° SSE visible
30 Oct 3.3 19:12:24 10° SSW 19:14:02 12° S 19:15:40 10° SSE visible
